Weather in Maloye Mostovskoye

Russia / Kurgan Oblast     55°46′31″N   66°21′51″E
temp.,
°C
wind,
m/s
gust,
m/s
humid.,
%
clouds,
%
prec.,
mm/h
press.,
hPa
HPBL,
m
8 march, mon
mon823:00−10nnw61193100 3.8 1000455
02:00−11nw5119494 0.1 1004399
05:00−14wnw489691 0.1 1007145
08:00−18w479613 0.0 1009137
11:00−14wsw479327 0.0 1010291
14:00−11sw598678 0.0 1011556
17:00−11ssw6118589 0.0 1010673
20:00−10ssw6149299 0.2 1009638
9 march, tue
tue923:00−8ssw7159299 0.3 1008683
02:00−7sw81589100 0.1 1008641
05:00−8sw7149199 0.1 1009408
08:00−6ssw71492100 0.0 1008532
11:00−6ssw91591100 0.3 1007796
14:00−5sw101689100 0.1 1006865
17:00−3wsw91583100 0.4 10061372
20:00−7w5108778 0.1 1010225
10 march, wed
wed1023:00−11wsw339153 0.1 101221
02:00−12sw239098 0.0 101321
05:00−12sse228999 0.0 101221
08:00−11se3491100 0.0 100985
11:00−8se4792100 0.0 1007274
14:00−6ese4692100 0.0 1005419
17:00−6ese4795100 0.3 1002495
20:00−6ese5995100 0.6 1000392
11 march, thu
thu1123:00−7ese5995100 1.3 999316
02:00−7s4896100 0.9 998419
05:00−15ssw51190100 1.4 999310
08:00−19ssw4119363 0.0 1000283
11:00−16ssw589166 0.0 1001498
14:00−15ssw5789100 0.1 1002687
17:00−14ssw2393100 0.2 1003303
20:00−15nw5995100 0.3 1006341
12 march, fri
fri1223:00−17nw5994100 0.4 1008582
02:00−21wnw4897100 0.1 1010200
05:00−21wnw5995100 0.1 1013439
08:00−26w489787 0.0 1015160
11:00−24wnw579661 0.0 1017313
14:00−20wnw599399 0.1 1019562
17:00−19wnw5889100 0.1 1021601
20:00−23w489346 0.0 1023133